FW4174 Weather Reports


Display with metric or nautical units.
time (UTC)temp
F
wind
direction
speed
MPH
gust
MPH
rain 1hr
in
rain 24hr
in
rain mn
in
humidity
%
barometer
mb
20260506213053 51 352 2.0 6.0 0.00 0.00 0.00 44 1015.4
20260506212549 51 0 2.0 9.0 0.00 0.00 0.00 44 1015.5
20260506212048 52 255 2.0 9.0 0.00 0.00 0.00 40 1015.5
20260506211550 51 336 3.0 6.0 0.00 0.00 0.00 44 1015.6
20260506211046 50 344 1.0 9.0 0.00 0.00 0.00 45 1015.7
20260506210547 50 309 2.0 9.0 0.00 0.00 0.00 43 1015.9
20260506210054 50 332 3.0 8.0 0.00 0.00 0.00 45 1015.9
20260506205543 51 281 2.0 8.0 0.00 0.00 0.00 42 1016.0
20260506205044 51 290 3.0 8.0 0.00 0.00 0.00 43 1016.1
20260506204551 51 291 1.0 9.0 0.00 0.00 0.00 46 1016.1
20260506204045 51 255 3.0 9.0 0.00 0.00 0.00 44 1016.1
20260506203544 51 242 2.0 8.0 0.00 0.00 0.00 42 1016.1
20260506203053 51 308 2.0 8.0 0.00 0.00 0.00 43 1016.1
20260506202544 52 272 2.0 8.0 0.00 0.00 0.00 43 1016.2
20260506202043 51 255 3.0 8.0 0.00 0.00 0.00 43 1016.2
20260506201607 51 273 3.0 9.0 0.00 0.00 0.00 44 1016.2
20260506201046 51 319 3.0 9.0 0.00 0.00 0.00 43 1016.2
20260506200545 51 277 2.0 9.0 0.00 0.00 0.00 44 1016.2
20260506200051 52 337 3.0 9.0 0.00 0.00 0.00 43 1016.2
20260506195545 52 11 4.0 11.0 0.00 0.00 0.00 43 1016.2
20260506195045 51 116 3.0 11.0 0.00 0.00 0.00 44 1016.2
20260506194553 50 105 2.0 7.0 0.00 0.00 0.00 46 1016.2
20260506194045 49 5 2.0 7.0 0.00 0.00 0.00 45 1016.3
20260506193544 49 275 2.0 7.0 0.00 0.00 0.00 46 1016.2
20260506193058 49 263 2.0 9.0 0.00 0.00 0.00 45 1016.3
20260506192545 50 34 2.0 9.0 0.00 0.00 0.00 45 1016.3
20260506192046 50 306 3.0 9.0 0.00 0.00 0.00 45 1016.3
20260506191602 50 264 2.0 9.0 0.00 0.00 0.00 47 1016.4
20260506191046 49 288 2.0 9.0 0.00 0.00 0.00 48 1016.4
20260506190547 48 335 2.0 9.0 0.00 0.00 0.00 47 1016.4
20260506190056 48 16 3.0 9.0 0.00 0.00 0.00 47 1016.3
20260506185545 48 265 3.0 9.0 0.00 0.00 0.00 47 1016.4
20260506185044 48 333 4.0 9.0 0.00 0.00 0.00 49 1016.5
20260506184558 48 360 3.0 8.0 0.00 0.00 0.00 48 1016.6
20260506184045 47 331 3.0 8.0 0.00 0.00 0.00 52 1016.6
20260506183545 47 249 3.0 8.0 0.00 0.00 0.00 49 1016.6
20260506183100 47 20 2.0 8.0 0.00 0.00 0.00 48 1016.5
20260506182543 47 285 2.0 8.0 0.00 0.00 0.00 48 1016.6
20260506182045 47 188 3.0 8.0 0.00 0.00 0.00 48 1016.6
20260506181553 47 277 2.0 6.0 0.00 0.00 0.00 48 1016.6
20260506181044 47 265 2.0 9.0 0.00 0.00 0.00 49 1016.8
20260506180544 47 259 2.0 9.0 0.00 0.00 0.00 49 1016.7
20260506180053 47 278 1.0 8.0 0.00 0.00 0.00 51 1016.8
20260506175543 46 271 3.0 8.0 0.00 0.00 0.00 49 1016.8
20260506175045 46 294 4.0 8.0 0.00 0.00 0.00 50 1017.0
20260506174552 46 245 2.0 8.0 0.00 0.00 0.00 50 1016.9
20260506174044 46 249 1.0 8.0 0.00 0.00 0.00 52 1016.9
20260506173545 46 352 2.0 8.0 0.00 0.00 0.00 52 1016.9
20260506173112 45 305 2.0 7.0 0.00 0.00 0.00 52 1017.0
20260506172546 45 294 3.0 7.0 0.00 0.00 0.00 50 1017.0
20260506172044 45 274 1.0 8.0 0.00 0.00 0.00 52 1017.1
20260506171558 45 321 2.0 8.0 0.00 0.00 0.00 54 1017.1
20260506171045 45 324 3.0 8.0 0.00 0.00 0.00 52 1017.1
20260506170545 45 306 3.0 5.0 0.00 0.00 0.00 53 1017.1
20260506170057 45 340 2.0 7.0 0.00 0.00 0.00 52 1017.2
20260506165545 45 302 2.0 8.0 0.00 0.00 0.00 55 1017.2
20260506165046 44 296 3.0 8.0 0.00 0.00 0.00 52 1017.3
20260506164555 44 17 3.0 7.0 0.00 0.00 0.00 53 1017.2
20260506164045 44 290 3.0 8.0 0.00 0.00 0.00 54 1017.2
20260506163546 44 0 2.0 8.0 0.00 0.00 0.00 54 1017.4
20260506163102 44 286 3.0 8.0 0.00 0.00 0.00 54 1017.3
20260506162545 44 0 2.0 8.0 0.00 0.00 0.00 54 1017.3
20260506162043 43 279 2.0 8.0 0.00 0.00 0.00 54 1017.3
20260506161550 43 293 2.0 8.0 0.00 0.00 0.00 54 1017.4
20260506161043 43 279 2.0 8.0 0.00 0.00 0.00 53 1017.3
20260506160543 43 288 2.0 6.0 0.00 0.00 0.00 54 1017.3
20260506160052 43 281 3.0 6.0 0.00 0.00 0.00 54 1017.2
20260506155543 43 278 2.0 7.0 0.00 0.00 0.00 54 1017.3
20260506155043 43 292 2.0 7.0 0.00 0.00 0.00 53 1017.2
20260506154601 43 292 2.0 7.0 0.00 0.00 0.00 53 1017.2
20260506154047 43 275 2.0 7.0 0.00 0.00 0.00 53 1017.2
20260506153547 43 5 2.0 8.0 0.00 0.00 0.00 53 1017.1
20260506153051 43 292 3.0 8.0 0.00 0.00 0.00 52 1017.1
20260506152544 43 278 2.0 8.0 0.00 0.00 0.00 54 1017.1
20260506152049 43 261 1.0 8.0 0.00 0.00 0.00 55 1017.0
20260506151551 43 31 2.0 7.0 0.00 0.00 0.00 55 1017.1
20260506151042 43 296 2.0 7.0 0.00 0.00 0.00 54 1017.1
20260506150545 43 296 2.0 7.0 0.00 0.00 0.00 56 1017.1
20260506150055 42 290 2.0 7.0 0.00 0.00 0.00 56 1017.1
20260506145544 42 271 2.0 6.0 0.00 0.00 0.00 55 1017.0
20260506145042 42 0 2.0 7.0 0.00 0.00 0.00 57 1017.1
20260506144554 42 292 2.0 7.0 0.00 0.00 0.00 57 1017.1
20260506144045 41 307 2.0 7.0 0.00 0.00 0.00 57 1017.1
20260506143543 41 305 2.0 5.0 0.00 0.00 0.00 57 1017.2
20260506143054 41 296 1.0 4.0 0.00 0.00 0.00 57 1017.2
20260506142543 41 244 2.0 4.0 0.00 0.00 0.00 58 1017.1
20260506142046 41 292 1.0 6.0 0.00 0.00 0.00 59 1017.1
20260506141554 41 265 1.0 6.0 0.00 0.00 0.00 60 1017.0
20260506141046 41 294 1.0 5.0 0.00 0.00 0.00 60 1017.0
20260506140546 41 284 2.0 5.0 0.00 0.00 0.00 61 1017.1
20260506140101 41 294 0.0 3.0 0.00 0.00 0.00 63 1017.1
20260506135546 40 0 0.0 3.0 0.00 0.00 0.00 64 1017.0
20260506135045 40 286 0.0 3.0 0.00 0.00 0.00 64 1017.1
20260506134552 40 0 1.0 3.0 0.00 0.00 0.00 64 1017.1
20260506134045 40 279 0.0 3.0 0.00 0.00 0.00 65 1017.0
20260506133546 40 292 1.0 5.0 0.00 0.00 0.00 65 1016.9
20260506133100 40 279 1.0 5.0 0.00 0.00 0.00 65 1017.0
20260506132546 40 306 1.0 4.0 0.00 0.00 0.00 64 1017.0
20260506132045 39 294 1.0 4.0 0.00 0.00 0.00 66 1017.0
20260506131552 39 0 1.0 4.0 0.00 0.00 0.00 66 1016.9
20260506131044 39 297 1.0 4.0 0.00 0.00 0.00 66 1016.8
20260506130546 39 294 1.0 4.0 0.00 0.00 0.00 66 1016.7
20260506130056 39 276 1.0 3.0 0.00 0.00 0.00 66 1016.8
20260506125545 39 296 1.0 3.0 0.00 0.00 0.00 66 1016.7
20260506125045 39 270 1.0 3.0 0.00 0.00 0.00 66 1016.7
20260506124559 39 290 0.0 2.0 0.00 0.00 0.00 67 1016.6
20260506124045 39 275 0.0 3.0 0.00 0.00 0.00 67 1016.5
20260506123548 39 281 0.0 3.0 0.00 0.00 0.00 67 1016.6
20260506123050 39 278 0.0 3.0 0.00 0.00 0.00 67 1016.4
20260506122545 39 0 1.0 3.0 0.00 0.00 0.00 67 1016.4
20260506122044 38 0 0.0 3.0 0.00 0.00 0.00 67 1016.2
20260506121553 38 292 0.0 2.0 0.00 0.00 0.00 68 1016.2
20260506121044 38 292 0.0 2.0 0.00 0.00 0.00 67 1016.2
20260506120545 38 0 0.0 2.0 0.00 0.00 0.00 67 1016.1
20260506120108 38 0 0.0 2.0 0.00 0.00 0.00 68 1016.1
20260506115546 38 292 0.0 2.0 0.00 0.00 0.00 67 1015.9
20260506115044 38 0 0.0 2.0 0.00 0.00 0.00 67 1015.9
20260506114603 38 0 0.0 1.0 0.00 0.00 0.00 67 1015.9
20260506114045 38 0 0.0 1.0 0.00 0.00 0.00 67 1015.7
20260506113545 38 0 0.0 2.0 0.00 0.00 0.00 67 1015.6
20260506113050 38 292 0.0 2.0 0.00 0.00 0.00 67 1015.5
20260506112545 38 292 0.0 2.0 0.00 0.00 0.00 67 1015.5
20260506112045 37 296 0.0 1.0 0.00 0.00 0.00 67 1015.5
20260506111554 38 0 0.0 3.0 0.00 0.00 0.00 67 1015.4
20260506111045 38 0 1.0 3.0 0.00 0.00 0.00 66 1015.4
20260506110545 37 296 0.0 2.0 0.00 0.00 0.00 67 1015.3
20260506110053 37 296 0.0 2.0 0.00 0.00 0.00 66 1015.3
20260506105549 37 0 0.0 2.0 0.00 0.00 0.00 67 1015.2
20260506105045 37 0 0.0 2.0 0.00 0.00 0.00 67 1015.0
20260506104552 37 0 0.0 2.0 0.00 0.00 0.00 67 1014.9
20260506104045 37 296 0.0 2.0 0.00 0.00 0.00 68 1014.9
20260506103544 37 319 0.0 2.0 0.00 0.00 0.00 68 1014.8
20260506103048 37 0 0.0 2.0 0.00 0.00 0.00 68 1015.0
20260506102545 37 0 0.0 2.0 0.00 0.00 0.00 68 1015.1
20260506102044 37 0 0.0 2.0 0.00 0.00 0.00 67 1015.0
20260506101553 37 319 0.0 1.0 0.00 0.00 0.00 67 1014.8
20260506101046 37 0 0.0 1.0 0.00 0.00 0.00 68 1014.8
20260506100546 37 0 0.0 1.0 0.00 0.00 0.00 67 1014.9
20260506100051 37 0 0.0 1.0 0.00 0.00 0.00 67 1015.0
20260506095546 37 0 0.0 2.0 0.00 0.00 0.00 67 1015.1
20260506095046 37 0 0.0 3.0 0.00 0.00 0.00 66 1015.1
20260506094552 38 0 1.0 3.0 0.00 0.00 0.00 65 1015.1
20260506094045 38 319 0.0 2.0 0.00 0.00 0.00 65 1015.0
20260506093545 38 319 0.0 2.0 0.00 0.00 0.00 65 1014.9
20260506093110 38 319 0.0 2.0 0.00 0.00 0.00 65 1014.8
20260506092545 38 319 1.0 2.0 0.00 0.00 0.00 65 1014.7
20260506092044 38 319 0.0 2.0 0.00 0.00 0.00 65 1014.9
20260506091551 38 0 0.0 2.0 0.00 0.00 0.00 65 1014.8
20260506091044 38 0 0.0 3.0 0.00 0.00 0.00 65 1014.7
20260506090545 38 0 0.0 3.0 0.00 0.00 0.00 65 1014.7
20260506090058 38 319 1.0 3.0 0.00 0.00 0.00 65 1014.7
20260506085545 38 0 0.0 2.0 0.00 0.00 0.00 65 1014.6
20260506085047 38 0 0.0 2.0 0.00 0.00 0.00 65 1014.8
20260506084548 38 319 1.0 2.0 0.00 0.00 0.00 65 1014.8
20260506084045 38 319 1.0 2.0 0.00 0.00 0.00 65 1014.7
20260506083548 38 319 0.0 2.0 0.00 0.00 0.00 65 1014.6
20260506083055 38 0 0.0 2.0 0.00 0.00 0.00 65 1014.6
20260506082544 38 319 1.0 2.0 0.00 0.00 0.00 64 1014.6
20260506082044 38 319 0.0 2.0 0.00 0.00 0.00 65 1014.9
20260506081549 38 0 0.0 2.0 0.00 0.00 0.00 65 1015.0
20260506081045 38 319 1.0 2.0 0.00 0.00 0.00 64 1014.9
20260506080545 38 319 0.0 2.0 0.00 0.00 0.00 64 1014.8
20260506080107 38 0 0.0 2.0 0.00 0.00 0.00 64 1014.6
20260506073105 38 0 1.0 2.0 0.00 0.00 0.00 62 1014.5
20260506072545 38 319 0.0 2.0 0.00 0.00 0.00 63 1014.6
20260506072047 38 319 1.0 2.0 0.00 0.00 0.00 63 1014.6
20260506071554 38 319 1.0 3.0 0.00 0.00 0.00 63 1014.8
20260506071043 38 0 1.0 3.0 0.00 0.00 0.00 63 1014.8
20260506070545 38 319 1.0 3.0 0.00 0.00 0.00 63 1014.7
20260506062043 38 0 0.0 2.0 0.00 0.00 0.00 65 1014.3
20260506061600 38 319 1.0 2.0 0.00 0.00 0.00 65 1014.3
20260506061046 38 319 0.0 2.0 0.00 0.00 0.00 64 1014.4
20260506060545 38 0 1.0 2.0 0.00 0.00 0.00 64 1014.4
20260506051043 38 319 0.0 2.0 0.00 0.00 0.00 62 1014.2
20260506050545 38 319 1.0 2.0 0.00 0.00 0.00 62 1014.3
20260506045047 38 319 1.0 2.0 0.00 0.00 0.00 62 1014.3
20260506044604 38 0 1.0 3.0 0.00 0.00 0.00 62 1014.3
20260506044047 38 319 1.0 3.0 0.00 0.00 0.00 62 1014.3
20260506043547 38 319 1.0 2.0 0.00 0.00 0.00 62 1014.3
20260506043053 38 319 1.0 2.0 0.00 0.00 0.00 62 1014.3
20260506042547 38 319 0.0 2.0 0.00 0.00 0.00 62 1014.3
20260506042047 38 319 1.0 2.0 0.00 0.00 0.00 62 1014.2
20260506041605 38 319 1.0 2.0 0.00 0.00 0.00 61 1014.1
20260506041046 38 319 1.0 3.0 0.00 0.00 0.00 61 1014.0
20260506040543 38 319 0.0 3.0 0.00 0.00 0.00 61 1014.0
20260506040055 39 319 1.0 3.0 0.00 0.00 0.00 60 1014.1
20260506035544 39 0 1.0 2.0 0.00 0.00 0.00 61 1014.0
20260506035044 39 319 1.0 2.0 0.00 0.00 0.00 61 1014.0
20260506034551 39 319 1.0 2.0 0.00 0.00 0.00 61 1014.0
20260506034045 39 319 1.0 3.0 0.00 0.00 0.00 61 1014.0
20260506033543 39 319 1.0 3.0 0.00 0.00 0.00 61 1014.0
20260506033052 39 319 1.0 3.0 0.00 0.00 0.00 60 1014.0
20260506032543 39 319 1.0 3.0 0.00 0.00 0.00 60 1013.9
20260506032045 39 319 1.0 3.0 0.00 0.00 0.00 60 1013.8
20260506031556 39 319 1.0 3.0 0.00 0.00 0.00 60 1013.8
20260506031047 40 319 1.0 3.0 0.00 0.00 0.00 59 1013.7
20260506030544 40 319 1.0 3.0 0.00 0.00 0.00 59 1013.8
20260506030049 40 319 0.0 3.0 0.00 0.00 0.00 58 1013.7
20260506025547 40 319 1.0 3.0 0.00 0.00 0.00 58 1013.6
20260506025047 40 319 1.0 3.0 0.00 0.00 0.00 58 1013.5
20260506024555 41 0 1.0 3.0 0.00 0.00 0.00 58 1013.4
20260506024046 41 319 1.0 3.0 0.00 0.00 0.00 57 1013.4
20260506023547 41 319 1.0 4.0 0.00 0.00 0.00 56 1013.3
20260506023056 41 319 1.0 4.0 0.00 0.00 0.00 56 1013.2
20260506022544 42 319 1.0 3.0 0.00 0.00 0.00 55 1013.2
20260506022045 42 319 1.0 3.0 0.00 0.00 0.00 55 1013.2
20260506021553 43 319 2.0 3.0 0.00 0.00 0.00 54 1013.1
20260506021048 43 319 2.0 4.0 0.00 0.00 0.00 54 1013.0
20260506020545 43 319 1.0 4.0 0.00 0.00 0.00 53 1012.8
20260506020118 44 325 1.0 4.0 0.00 0.00 0.00 52 1012.8
20260506015549 44 320 2.0 4.0 0.00 0.00 0.00 51 1012.7
20260506015046 45 310 2.0 4.0 0.00 0.00 0.00 51 1012.6
20260506014554 45 308 2.0 8.0 0.00 0.00 0.00 50 1012.4
20260506014045 46 292 2.0 8.0 0.00 0.00 0.00 48 1012.4
20260506013545 46 309 3.0 8.0 0.00 0.00 0.00 46 1012.3
20260506013051 46 296 2.0 7.0 0.00 0.00 0.00 46 1012.2
20260506012545 47 278 3.0 7.0 0.00 0.00 0.00 47 1012.2
20260506012045 47 271 1.0 5.0 0.00 0.00 0.00 47 1012.1
20260506011558 47 311 2.0 6.0 0.00 0.00 0.00 45 1012.2
20260506011045 47 296 3.0 7.0 0.00 0.00 0.00 44 1012.2
20260506010545 48 291 4.0 7.0 0.00 0.00 0.00 43 1012.0
20260506010058 48 288 2.0 7.0 0.00 0.00 0.00 44 1012.0
20260506005544 48 306 4.0 7.0 0.00 0.00 0.00 43 1011.9
20260506005045 48 320 3.0 7.0 0.00 0.00 0.00 43 1011.8
20260506004553 48 279 3.0 7.0 0.00 0.00 0.00 42 1011.8
20260506004045 48 311 3.0 9.0 0.00 0.00 0.00 41 1011.7
20260506003546 48 292 4.0 9.0 0.00 0.00 0.00 41 1011.7
20260506003049 49 288 3.0 7.0 0.00 0.00 0.00 41 1011.8
20260506002545 49 281 3.0 7.0 0.00 0.00 0.00 41 1011.7
20260506002045 49 233 3.0 7.0 0.00 0.00 0.00 41 1011.6
20260506001605 49 281 3.0 7.0 0.00 0.00 0.00 41 1011.6
20260506001045 49 294 3.0 9.0 0.00 0.00 0.00 41 1011.5
20260506000545 49 205 3.0 9.0 0.00 0.00 0.00 40 1011.5
20260506000119 49 281 3.0 8.0 0.00 0.00 0.00 41 1011.4
20260505235545 49 296 3.0 8.0 0.00 0.00 0.00 40 1011.4
20260505235045 49 284 3.0 9.0 0.00 0.00 0.00 40 1011.4
20260505234552 50 296 4.0 9.0 0.00 0.00 0.00 39 1011.3
20260505234044 50 296 3.0 8.0 0.00 0.00 0.00 39 1011.2
20260505233544 50 304 3.0 8.0 0.00 0.00 0.00 39 1011.2
20260505233059 50 329 3.0 8.0 0.00 0.00 0.00 39 1011.1
20260505232545 50 281 4.0 8.0 0.00 0.00 0.00 37 1011.2
20260505232045 50 317 3.0 8.0 0.00 0.00 0.00 38 1011.2
20260505231556 50 251 4.0 9.0 0.00 0.00 0.00 38 1011.1
20260505231044 50 263 3.0 9.0 0.00 0.00 0.00 39 1011.0
20260505230545 51 304 5.0 9.0 0.00 0.00 0.00 37 1011.1
20260505230052 51 273 4.0 10.0 0.00 0.00 0.00 38 1011.0
20260505225545 51 275 4.0 10.0 0.00 0.00 0.00 38 1010.9
20260505225046 51 285 3.0 7.0 0.00 0.00 0.00 37 1011.0
20260505224552 51 285 3.0 9.0 0.00 0.00 0.00 36 1010.9
20260505224045 51 286 3.0 9.0 0.00 0.00 0.00 36 1010.9
20260505223545 52 252 5.0 9.0 0.00 0.00 0.00 36 1010.9
20260505223053 52 255 3.0 8.0 0.00 0.00 0.00 37 1010.9
20260505222545 52 286 3.0 10.0 0.00 0.00 0.00 36 1010.8
20260505222047 53 278 5.0 10.0 0.00 0.00 0.00 36 1010.9
20260505221557 53 301 3.0 10.0 0.00 0.00 0.00 37 1010.8
20260505221044 52 270 2.0 8.0 0.00 0.00 0.00 35 1010.9
20260505220545 53 297 3.0 8.0 0.00 0.00 0.00 36 1010.8
20260505220106 54 289 4.0 8.0 0.00 0.00 0.00 35 1010.8
20260505215544 53 302 3.0 8.0 0.00 0.00 0.00 38 1010.7
20260505215045 54 271 3.0 8.0 0.00 0.00 0.00 36 1010.8
20260505214605 54 290 3.0 8.0 0.00 0.00 0.00 34 1010.8
20260505214045 54 294 4.0 10.0 0.00 0.00 0.00 36 1010.8
20260505213545 54 286 4.0 10.0 0.00 0.00 0.00 35 1010.8